30.06.2024;16:00;84
30.06.2024;15:00;84
30.06.2024;14:00;86
30.06.2024;13:00;86
30.06.2024;12:00;94
30.06.2024;11:00;93
30.06.2024;10:00;90
30.06.2024;09:00;85
30.06.2024;08:00;87
30.06.2024;07:00;86
30.06.2024;06:00;80
30.06.2024;05:00;84
30.06.2024;04:00;91
30.06.2024;03:00;65
30.06.2024;02:00;64
30.06.2024;01:00;66
30.06.2024;00:00;74
29.06.2024;23:00;79
29.06.2024;22:00;81
29.06.2024;21:00;68
29.06.2024;20:00;70
29.06.2024;19:00;56
29.06.2024;18:00;59
29.06.2024;17:00;68
29.06.2024;16:00;85
29.06.2024;15:00;87
29.06.2024;14:00;88
29.06.2024;13:00;85
29.06.2024;12:00;77
29.06.2024;11:00;69
29.06.2024;10:00;68
29.06.2024;09:00;58
29.06.2024;08:00;59
29.06.2024;07:00;60
29.06.2024;06:00;51
29.06.2024;05:00;52
29.06.2024;04:00;49
29.06.2024;03:00;45
29.06.2024;02:00;41
29.06.2024;01:00;43
29.06.2024;00:00;49
28.06.2024;23:00;53
28.06.2024;22:00;57
28.06.2024;21:00;65
28.06.2024;20:00;83
28.06.2024;19:00;101
28.06.2024;18:00;98
28.06.2024;17:00;103
